Location: Newark
(35.5300°N, 14.3000°E)
Time: 08:49:00
(UTC+00:00)

S-56A Canister/Altair - Pass Details

Date: 13 November 2019
Orbit: 633 x 2499 km, 38.9° (Epoch: 06 December)

Event Time Altitude Azimuth Distance (km) Brightness Sun altitude
Rises 18:40:23 0° 257° (WSW) 4,298 12.4 -33.2°
Reaches altitude 10° 18:43:47 10° 259° (WSW) 3,036 11.4 -33.9°
Enters shadow 18:49:05 49° 270° (W) 1,162 8.6 -34.9°
